Weather in Rechitsa

Russia / Bryansk Oblast     52°56′29″N   34°51′01″E
temp.,
°C
wind,
m/s
gust,
m/s
humid.,
%
clouds,
%
prec.,
mm/h
press.,
hPa
HPBL,
m
17 april, sat
sat1700:00+6ese348779 0.0 101765
03:00+5se22905 0.0 101834
06:00+5se2290100 0.0 101832
09:00+8sse2373100 0.0 1019347
12:00+8ssw2180100 1.3 1018614
15:00+6sw5793100 8.4 1017423
18:00+6ssw4695100 2.8 1017663
21:00+5ssw3891100 5.8 1018771
18 april, sun
sun1800:00+5se349585 0.4 1018133
03:00+5ese489315 0.4 1017254
06:00+3se249571 0.0 101892
09:00+6ese248285 0.1 1018322
12:00+10e346192 0.4 10181392
15:00+11sse4454100 1.1 10181380
18:00+9s3466100 0.4 1019884
21:00+7se1283100 0.6 102076
19 april, mon
mon1900:00+6e2581100 0.1 1019199
03:00+6e3592100 0.6 1019740
06:00+6e3894100 4.3 1018496
09:00+6ese6993100 4.7 1019616
12:00+6ene5109199 0.5 1019467
15:00+10e4773100 1.4 1018924
18:00+9ene3779100 1.3 1017222
21:00+8ene7138599 2.0 1017576
20 april, tue
tue2000:00+7ene71189100 0.0 1016588
03:00+6ene61193100 0.1 1015548
06:00+6ene61193100 0.1 1014558
09:00+5ene61293100 0.6 1012649
12:00+6ene71393100 0.1 1009694
15:00+6ne81594100 0.8 1004670
18:00+6ne101794100 8.3 998786
21:00+9e81594100 14.4 993643
21 april, wed
wed2100:00+9ese71386100 0.6 992942
03:00+8ese81490100 2.0 9901293
06:00+5nnw1193100 0.5 991214
09:00+3wsw81496100 0.8 998710
12:00+4sw81395100 0.6 10041001
15:00+5wsw81393100 0.6 10081019
18:00+8wsw5107985 0.1 10111153
21:00+6ssw4108593 0.3 1014332